Location: Hiltenfingen
(48.1615°N, 10.7191°E)
Time: 18:30:27
(UTC+00:00)

Daily predictions for brighter satellites

Satellite Brightness Start Highest point End
(mag) Time Altitude Azimuth Time Altitude Azimuth Time Altitude Azimuth
Cosmos 1908 Rocket 3.9 16:02:44 10° SSW 16:07:09 74° W 16:11:37 10° N
MOS 1 Rocket 4.3 16:03:56 10° ESE 16:07:15 22° ENE 16:10:41 10° NNE
Cosmos 1441 Rocket 3.3 16:03:57 10° NNW 16:07:18 66° W 16:10:38 10° S
SL-08 R/B 4.4 16:03:59 10° S 16:10:02 75° E 16:16:06 10° NNE
USA 215 3.3 16:03:55 10° ESE 16:10:26 76° NNE 16:17:00 10° NW
Cosmos 1975 Rocket 3.2 16:06:18 10° N 16:10:33 49° ENE 16:14:48 10° SSE
ARIANE 5 R/B 2.8 16:06:12 10° SE 16:10:52 43° ENE 16:15:37 10° N
ATLAS 5 CENTAUR R/B 2.3 16:08:59 10° NW 16:13:19 65° SW 16:18:43 10° SSE
Cosmos 1802 Rocket 4.4 16:11:27 10° SSW 16:17:52 74° W 16:24:18 10° N
Cosmos 2344 4.3 16:11:22 10° NW 16:18:15 36° NNE 16:26:43 10° E
Iridium 4 Rocket 4.0 16:14:31 10° SSW 16:19:27 59° W 16:24:01 10° N
SAR-Lupe-4 3.8 16:16:29 10° SE 16:19:55 46° ENE 16:23:22 10° N
ISS -3.5 16:24:50 10° SW 16:28:08 60° SSE 16:30:57 13° ENE
CZ-2D R/B 3.0 16:26:10 10° SE 16:29:11 45° ENE 16:32:14 10° N
COSMOS 2406 4.1 16:25:39 10° NNW 16:30:30 28° NE 16:35:21 10° ESE
Cosmos 1833 Rocket 3.7 16:25:03 10° NW 16:30:31 52° WSW 16:35:57 10° S
Cosmos 407 Rocket 3.6 16:25:30 10° S 16:30:31 54° ESE 16:35:32 10° NNE
Cosmos 1484 Rocket 4.0 16:28:04 10° S 16:31:24 41° W 16:34:46 10° NNW
Cosmos 2016 Rocket 4.4 16:25:30 10° SSW 16:31:46 69° W 16:38:10 10° N
Cosmos 1812 3.1 16:30:01 10° SSE 16:32:25 23° E 16:34:34 12° NE
IRS-P3 4.3 16:29:12 10° SE 16:34:20 51° ENE 16:39:30 10° N
TIMED 4.5 16:30:28 10° SSW 16:34:44 88° WNW 16:39:01 10° NNE
Tsikada Rocket 4.3 16:29:19 10° NNW 16:35:45 78° W 16:42:04 10° S
ERS-1 4.5 16:34:26 10° SSE 16:39:31 64° ENE 16:44:34 10° N
SMAP 3.1 16:36:49 10° SSE 16:41:29 87° WSW 16:46:11 10° NNW
Cosmos 44 Rocket 3.5 16:38:54 10° SSW 16:43:31 51° ESE 16:47:38 14° NE
Cosmos 540 Rocket 3.4 16:39:57 10° NNW 16:45:07 78° ENE 16:50:14 10° SSE
SJ 16-02 2.4 16:42:09 10° SSE 16:45:40 25° E 16:47:54 17° ENE
SPOT 1/Viking Rocket 4.0 16:41:29 10° SE 16:46:15 39° ENE 16:51:04 10° N
Cosmos 1869 2.9 16:43:53 10° S 16:47:23 69° E 16:50:53 10° NNE
YAOGAN 1 3.5 16:44:37 10° ESE 16:48:09 26° ENE 16:51:42 10° N
SL-16 R/B 3.4 16:46:40 10° N 16:52:44 53° WNW 16:58:44 10° SW
Cosmos 1763 Rocket 3.6 16:48:19 10° NNW 16:53:33 78° WSW 16:58:40 10° SSE
Landsat 7 3.7 16:49:00 10° SSE 16:53:39 89° E 16:58:20 10° NNW
Spot 4 Rocket 4.4 16:52:28 10° SE 16:57:13 41° ENE 17:01:58 10° N
Nadezhda 4 Rocket 4.2 16:52:48 10° N 16:58:52 48° ENE 17:04:52 10° SSE
RESURS DK-1 2.7 16:55:19 10° NW 16:59:18 65° WSW 17:03:14 10° SSE
Timation 1 Rocket 4.5 16:53:20 10° NNW 16:59:19 81° WSW 17:05:17 10° SSE
Cosmos 1140 Rocket 4.4 16:54:40 10° SW 16:59:40 49° WNW 17:04:41 10° NNE
Aureole 3 Rocket 2.2 16:57:26 10° S 17:00:24 60° E 17:03:38 10° NNE
CZ-4C R/B 3.9 16:58:17 10° WNW 17:02:14 22° NNW 17:06:52 10° NE
Resurs 1-3 4.2 16:58:33 10° SE 17:02:24 33° ENE 17:06:17 10° N
CZ-4 R/B 4.3 17:01:39 10° SSE 17:05:32 56° ENE 17:09:26 10° N
SJ-6F 4.2 17:01:40 10° SSE 17:05:35 88° ENE 17:09:32 10° NNW
UNK 4.4 17:01:18 10° N 17:05:50 57° WNW 17:10:20 10° SSW
Cosmos 304 Rocket 4.3 17:04:18 10° SSE 17:08:34 35° ESE 17:10:27 25° ENE
Cosmos 1400 Rocket 3.1 17:06:17 10° SSE 17:09:50 38° E 17:11:07 29° NE
SJ-12 4.4 17:06:21 10° S 17:10:05 57° W 17:13:50 10° NNW
Cosmos 371 Rocket 3.9 17:05:53 10° SSE 17:10:13 35° ESE 17:12:04 26° ENE
Cosmos 1536 Rocket 3.5 17:08:05 10° N 17:12:29 57° ENE 17:16:48 10° SSE
Helios 1A Rocket 3.4 17:16:48 29° SE 17:16:48 29° SE 17:19:08 10° SSE
Okean 2 Rocket 3.3 17:12:58 10° SSE 17:17:10 46° E 17:20:03 19° NNE
Cosmos 489 Rocket 4.4 17:13:09 10° NNW 17:19:25 67° ENE 17:25:35 10° SSE
NOAA 6 4.2 17:20:29 10° SE 17:25:23 47° ENE 17:30:18 10° N
Geosat 4.4 17:25:23 32° E 17:26:53 41° NE 17:31:34 10° NNW
SL-12 R/B(2) 4.4 17:18:50 10° SW 17:26:53 81° NW 17:35:47 14° NE
Resurs 01 Rocket 3.3 17:30:11 18° NNE 17:30:11 18° NNE 17:31:39 10° N
COSMO-SKYMED 1 2.6 17:26:49 38° NE 17:27:59 49° E 17:31:58 10° S
Cosmos 1943 Rocket 2.5 17:24:38 10° SW 17:30:12 64° WNW 17:35:17 12° NNE
Cosmos 2251 Rocket 3.6 17:28:46 10° SSW 17:34:03 82° WNW 17:38:36 15° NNE
Cosmos 841 Rocket 3.4 17:29:06 10° NNW 17:34:22 67° ENE 17:38:54 14° SSE
Cosmos 2058 3.4 17:30:28 10° NNW 17:34:23 59° W 17:38:17 10° S
SJ-7 3.9 17:31:56 10° SSE 17:35:37 80° ENE 17:39:19 10° N
BREEZE-M DEB (TANK) 2.5 17:35:23 10° W 17:38:08 86° NNW 17:39:49 41° ENE
Cosmos 2082 Rocket 2.6 17:33:58 10° NNW 17:39:32 65° WSW 17:45:04 10° SSE
ATLAS 2AS CENTAUR R/B 3.1 17:34:03 10° NW 17:40:29 42° NE 17:42:14 36° ENE
Cosmos 1346 Rocket 4.5 17:37:27 10° N 17:38:39 19° N 17:38:39 19° N
IRAS Rocket 4.2 17:37:03 10° SSE 17:42:37 88° WSW 17:48:11 10° NNW
Cosmos 2278 Rocket 2.8 17:38:13 10° SW 17:43:44 54° WNW 17:48:32 14° NNE
MOS 1 Rocket 4.2 17:40:49 10° S 17:44:59 46° W 17:49:21 10° NNW
Cosmos 1464 Rocket 4.1 17:43:30 10° SSW 17:49:48 78° W 17:56:04 10° N
Cosmos 1634 Rocket 4.3 17:44:29 10° SSE 17:57:51 - NNE 17:50:01 42° E
CZ-2D R/B 4.1 17:46:37 10° S 17:50:41 57° W 17:54:52 10° NNW
Meteor 2-1 Rocket 4.2 17:45:39 10° S 17:51:29 66° E 17:57:23 10° NNE
Cosmos 2369 Rocket 3.8 17:48:18 10° SSE 17:50:08 19° SSE 17:50:08 19° SSE
USA 215 4.4 17:47:42 10° SSE 17:53:47 40° SW 17:59:54 10° WNW
PSLV R/B 3.6 17:52:27 10° S 17:56:29 69° WSW 18:00:30 10° NNW
Cosmos 1862 4.3 17:53:19 10° NNW 17:56:46 41° W 18:00:11 10° SSW
Cosmos 2151 Rocket 4.4 17:56:06 10° SSW 18:00:28 52° WNW 18:04:53 10° N
Cosmos 2034 Rocket 3.9 17:57:30 10° S 18:03:43 89° W 18:10:03 10° N
Cosmos 676 Rocket 4.0 17:59:39 10° SSW 18:04:58 85° WNW 18:06:42 44° NNE
ISS -2.1 18:01:43 10° W 18:03:52 33° WNW 18:03:52 33° WNW
Okean 1 Rocket 3.3 18:02:43 10° SSW 18:07:06 67° W 18:08:25 43° NNW
Cosmos 1656 Rocket 3.5 18:02:08 10° SSW 18:07:39 71° ESE 18:08:00 69° E
USA 281 3.2 18:11:28 54° ENE 18:11:48 54° NE 18:18:12 10° NNW
Sich 1 Rocket 4.1 18:08:23 10° SSW 18:12:52 59° WNW 18:14:56 30° N
Cosmos 1932 4.4 18:08:48 10° SSW 18:15:10 80° SE 18:16:22 61° NE
COSMOS 2406 3.6 18:09:35 10° NNW 18:15:13 63° WSW 18:19:01 21° S
Cosmos 1092 Rocket 3.8 18:10:40 10° N 18:16:57 87° E 18:23:09 10° S
BlueWalker 3 4.3 18:14:50 10° SSW 18:15:40 16° SSW 18:15:40 16° SSW
Cosmos 2026 Rocket 4.0 18:15:50 10° NNW 18:21:56 77° W 18:28:04 10° S
SJ 16-02 2.6 18:19:36 10° SW 18:23:37 37° WNW 18:24:29 33° NW
YAOGAN 1 4.0 18:19:57 10° SSW 18:23:52 35° W 18:27:49 10° NNW
Cosmos 2344 3.9 18:25:34 10° NW 18:33:35 84° SW 18:38:34 35° SSE
Meteor 2-3 Rocket 4.5 18:32:19 10° NNW 18:37:48 51° W 18:43:13 10° SSW
CZ-4C R/B 4.2 18:48:18 10° NW 18:51:49 20° N 18:51:49 20° N
Resurs 01 Rocket 4.3 19:07:37 13° NNW 19:07:37 13° NNW 19:08:13 10° NNW
ATLAS 2AS CENTAUR R/B 3.6 19:25:02 10° NW 19:29:41 43° WNW 19:29:41 43° WNW
